This is the latest recevied weather packets stored in our database for station/object W5ADC. If no packets are shown the sender has not sent any weather packets the latest 10 day(s).
| Time | Temp. | Humidity | Pressure | Rain* | Wind** | Luminosity | Snow |
|---|---|---|---|---|---|---|---|
| 1777565948 | 16.67° C | 86% | 1012.1 hPa | 0 mm | - | 62 W/m² | - |
| 1777565643 | 16.67° C | 86% | 1011.9 hPa | 0 mm | - | 124 W/m² | - |
| 1777565340 | 16.67° C | 86% | 1012.4 hPa | 0 mm | - | 95 W/m² | - |
| 1777565036 | 16.67° C | 86% | 1012.1 hPa | 0 mm | - | 68 W/m² | - |
| 1777564731 | 16.67° C | 86% | 1012.3 hPa | 0 mm | - | 60 W/m² | - |
| 1777564427 | 16.67° C | 86% | 1012.7 hPa | 0 mm | - | 46 W/m² | - |
| 1777564123 | 16.67° C | 85% | 1013.1 hPa | 0 mm | - | 36 W/m² | - |
| 1777563819 | 16.67° C | 85% | 1012.8 hPa | 0 mm | - | 39 W/m² | - |
| 1777563516 | 17.22° C | 85% | 1012.5 hPa | 0 mm | - | 57 W/m² | - |
| 1777563214 | 16.67° C | 86% | 1012.2 hPa | 0 mm | - | 66 W/m² | - |
| 1777562911 | 17.22° C | 86% | 1011.9 hPa | 0 mm | - | 85 W/m² | - |
| 1777562608 | 16.67° C | 86% | 1011.7 hPa | 0 mm | - | 93 W/m² | - |
| 1777562307 | 16.67° C | 86% | 1011.8 hPa | 0 mm | - | 93 W/m² | - |
| 1777562003 | 16.67° C | 86% | 1011.8 hPa | 0 mm | - | 78 W/m² | - |
| 1777561701 | 16.67° C | 86% | 1011.8 hPa | 0 mm | - | 116 W/m² | - |
| 1777561396 | 16.67° C | 87% | 1011.5 hPa | 0 mm | - | 137 W/m² | - |
| 1777561091 | 16.67° C | 87% | 1011.5 hPa | 0 mm | - | 164 W/m² | - |
| 1777560787 | 16.67° C | 88% | 1011.3 hPa | 0 mm | - | 143 W/m² | - |
| 1777560484 | 16.67° C | 89% | 1011.1 hPa | 0 mm | - | 71 W/m² | - |
| 1777560182 | 16.11° C | 90% | 1011 hPa | 0 mm | - | 71 W/m² | - |
| 1777559879 | 16.11° C | 90% | 1011 hPa | 0 mm | - | 59 W/m² | - |
| 1777559574 | 16.11° C | 91% | 1010.7 hPa | 0 mm | - | 57 W/m² | - |
| 1777559271 | 16.11° C | 91% | 1010.9 hPa | 0 mm | - | 66 W/m² | - |
| 1777558967 | 16.11° C | 91% | 1010.7 hPa | 0 mm | - | 56 W/m² | - |
| 1777558663 | 16.11° C | 91% | 1010.9 hPa | 0 mm | - | 54 W/m² | - |
* Rain latest hour (hover to see other rain measurements)
** Current wind speed in m/s (hover to see current wind gust speed)